Tracking 30995 objects as of 5-Jul-2025
HD Live streaming from Space Station
objects crossing your sky now

SL-8 R/B

Track SL-8 R/B now!
10-day predictions


NORAD ID: 11112
Int'l Code: 1978-105B
Perigee: 746.0 km
Apogee: 794.7 km
Inclination: 74.0 °
Period: 100.1 minutes
Semi major axis: 7141 km
RCS: 4.9315 m2 (large)
Launch date: November 16, 1978
Source: Commonwealth of Independent States (former USSR) (CIS)
Launch site: PLESETSK MISSILE AND SPACE COMPLEX (PKMTR)

Note: This is a ROCKET BODY
Your satellite tracking list
Your tracking list is empty




NASA's NSSDC Master Catalog

Two Line Element Set (TLE):
1 11112U 78105B   25186.18107372  .00000212  00000-0  77478-4 0  9990
2 11112  74.0292 154.2547 0034069 314.1205  45.7147 14.38577231442209
Source of the keplerian elements: AFSPC